Probability
0 0 0 0 0 0 0 0 0 0 0 0 0 0 0 0 0 0 0 0 0 0 0 0 0 0 0 0 0 0 0 0 0 0 0 0 0 0
0 0 0 0 0 0 0 0 0 0 0 0 0 0 0 0 0 0 0 0 0 0 0 0 0 0 0 0 0 0 0 0 0 0 0 0 0 0
0 0 0 0 0 0 0 0 0 0 0 0 0 0 0 0 0 0 0 0 0 0 0 0 0 0 0 0 0 0 0 0 0 0 0 0 0 0
0 0 0 0 0 0 0 0 0 0 0 0 0 0 0 0 0 0 0 0 0 0 0 0 0 0 0 0 0 0 0 0 0 0 0 0 0 0
0 0 0 0 0 0 0 0 0 0 0 0 0 0 0 0 0 0 0 0 0 0 0 0 0 0 0 0 0 0 0 0 0 0 0 0 0 0
0 0 0 0 0 0 0 0 0 0 0 0 0 0 0 0 0 0 0 0 0 0 0 0 0 0 0 0 0 0 0 0 0 0 0 0 0 0
0 0 0 0 0 0 0 0 0 0 0 0 0 0 0 0 0 0 0 0 0 0 0 0 0 0 0 0 0 0 0 0 0 0 0 0 0 0
0 0 0 0 0 0 0 0 0 0 0 0 0 0 0 0 0 0 0 0 0 0 0 0 0 0 0 0 0 0 0 0 0 0 0 0 0 0
0 0 0 0 0 0 0 0 0 0 0 0 0 0 0 0 0 0 0 0 0 0 0 0 0 0 0 0 0 0 0 0 0 0 0 0 0 0
0 0 0 0 0 0 0 0 0 0 0 0 0 0 0 0 0 0 0 0 0 0 0 0 0 0 0 0 0 0 0 0 0 0 0 0 0 0
0 0 0 0 0 0 0 0 0 0 0 0 0 0 0 0 0 0 0 0 0 0 0 0 0 0 0 0 0 0 0 0 0 0 0 0 0 0
0 0 0 0 0 0 0 0 0 0 0 0 0 0 0 0 0 0 0 0 0 0 0 0 0 0 0 0 0 0 0 0 0 0 0 0 0 0
0 0 0 0 0 0 0 0 0 0 0 0 0 0 0 0 0 0 0 0 0 0 0 0 0 0 0 0 0 0 0 0 0 0 0 0 0 0
0 0 0 0 0 0 0 0 0 0 0 0 0 0 0 0 0 0 0 0 0 0 0 0 0 0 0 0 0 0 0 0 0 0 0 0 0 0
0 0 0 0 0 0 0 0 0 0 0 0 0 0 0 0 0 0 0 0 0 0 0 0 0 0 0 0 0 0 0 0 0 0 0 0 0 0
0 0 0 0 0 0 0 0 0 0 0 0 0 0 0 0 0 0 0 0 0 0 0 0 0 0 0 0 0 0 0 0 0 0 0 0 0 0
0 0 0 0 0 0 0 0 0 0 0 0 0 0 0 0 0 0 0 0 0 0 0 0 0 0 0 0 0 0 0 0 0 0 0 0 0 0
0 0 0 0 0 0 0 0 0 0 0 0 0 0 0 0 0 0 0 0 0 0 0 0 0 0 0 0 0 0 0 0 0 0 0 0 0 0
0 0 0 0 0 0 0 0 0 0 0 0 0 0 0 0 0 0 0 0 0 0 0 0 0 0 0 0 0 0 0 0 0 0 0 0 0 0
0 0 0 0 0 0 0 0 0 0 0 0 0 0 0 0 0 0 0 0 0 0 0 0 0 0 0 0 0 0 0 0 0 0 0 0 0 0
0 0 0 0 0 0 0 0 0 0 0 0 0 0 0 0 0 0 0 0 0 0 0 0 0 0 0 0 0 0 0 0 0 0 0 0 0 0
0 0 0 0 0 0 0 0 0 0 0 0 0 0 0 0 0 0 0 0 0 0 0 0 0 0 0 0 0 0 0 0 0 0 0 0 0 0
0 0 0 0 0 0 0 0 0 0 0 0 0 0 0 0 0 0 0 0 0 0 0 0 0 0 0 0 0 0 0 0 0 0 0 0 0 0
Height
5639 5643 5647 5651 5655 5659 5663 5667 5671 5675 5680 5685 5688 5692 5695 5698 5702 5705 5708 5711 5713 5716 5718 5720 5722 5724 5725 5727 5727 5728 5728 5729 5729 5728 5728 5727 5726 5725
5623 5627 5631 5635 5640 5644 5648 5652 5656 5660 5665 5670 5674 5678 5681 5684 5688 5691 5694 5697 5700 5703 5706 5708 5710 5712 5713 5715 5716 5716 5717 5717 5717 5717 5716 5715 5715 5714
5607 5611 5616 5620 5624 5628 5633 5637 5641 5645 5650 5655 5659 5663 5667 5670 5674 5677 5681 5684 5687 5690 5693 5695 5697 5699 5701 5702 5703 5704 5705 5705 5705 5705 5704 5704 5703 5702
5592 5595 5600 5604 5608 5613 5617 5622 5626 5630 5635 5640 5644 5648 5652 5656 5660 5663 5667 5670 5673 5676 5679 5681 5684 5686 5688 5689 5690 5691 5692 5692 5692 5692 5692 5691 5690 5689
5576 5580 5584 5588 5593 5597 5601 5606 5611 5615 5619 5624 5630 5633 5637 5641 5645 5649 5653 5656 5660 5663 5665 5668 5670 5672 5674 5676 5677 5678 5679 5680 5680 5679 5678 5678 5677 5676
5561 5564 5568 5572 5577 5581 5586 5591 5595 5599 5604 5609 5614 5618 5623 5627 5630 5635 5639 5642 5646 5649 5651 5654 5656 5658 5660 5662 5664 5665 5665 5665 5665 5665 5664 5664 5663 5662
5547 5550 5554 5557 5562 5566 5571 5575 5580 5584 5588 5593 5598 5603 5608 5612 5616 5620 5624 5627 5631 5634 5637 5640 5643 5644 5646 5647 5649 5650 5651 5651 5651 5651 5650 5650 5649 5648
5533 5536 5539 5543 5547 5552 5556 5560 5565 5569 5574 5579 5584 5588 5593 5597 5601 5604 5608 5612 5617 5621 5622 5625 5627 5629 5631 5633 5635 5635 5636 5636 5636 5636 5636 5635 5635 5634
5519 5523 5526 5530 5533 5537 5541 5546 5551 5555 5560 5565 5569 5574 5578 5583 5587 5590 5593 5596 5601 5604 5606 5610 5612 5615 5617 5618 5619 5620 5621 5621 5621 5621 5620 5620 5620 5619
5506 5510 5513 5517 5520 5524 5527 5532 5537 5542 5546 5551 5556 5560 5564 5567 5570 5574 5577 5581 5585 5588 5591 5595 5597 5599 5601 5603 5604 5605 5605 5605 5605 5605 5605 5605 5605 5604
5494 5498 5501 5505 5508 5511 5515 5519 5524 5528 5532 5536 5541 5545 5549 5552 5555 5558 5562 5565 5569 5573 5575 5579 5582 5584 5586 5587 5588 5589 5589 5590 5590 5590 5590 5590 5589 5589
5484 5487 5490 5493 5496 5498 5502 5506 5510 5515 5518 5523 5527 5531 5535 5538 5541 5544 5547 5551 5554 5558 5561 5564 5567 5568 5571 5573 5573 5573 5574 5574 5575 5574 5574 5574 5573 5573
5473 5476 5479 5481 5484 5487 5490 5493 5497 5501 5505 5509 5513 5517 5521 5524 5527 5530 5533 5537 5540 5544 5548 5550 5552 5554 5556 5558 5559 5559 5559 5560 5560 5560 5559 5559 5558 5557
5463 5465 5468 5471 5473 5476 5478 5481 5484 5488 5492 5495 5500 5504 5507 5511 5514 5517 5520 5523 5526 5530 5533 5535 5538 5540 5541 5543 5545 5545 5545 5545 5545 5545 5545 5544 5543 5542
5453 5455 5458 5460 5463 5465 5467 5470 5472 5476 5479 5483 5487 5491 5495 5498 5501 5503 5506 5509 5512 5515 5518 5520 5523 5525 5526 5528 5530 5530 5531 5531 5531 5531 5531 5530 5529 5528
5443 5446 5448 5450 5452 5455 5457 5459 5462 5465 5468 5471 5475 5478 5482 5485 5487 5490 5493 5496 5499 5502 5504 5506 5508 5510 5512 5513 5514 5515 5516 5516 5517 5516 5516 5516 5515 5513
5434 5436 5439 5441 5442 5444 5447 5449 5451 5453 5456 5459 5463 5466 5469 5472 5474 5477 5480 5483 5486 5489 5491 5493 5494 5496 5497 5498 5500 5501 5501 5502 5502 5502 5502 5502 5500 5499
5425 5428 5430 5432 5433 5435 5437 5439 5441 5443 5446 5449 5452 5454 5457 5460 5463 5465 5468 5470 5473 5475 5478 5480 5481 5482 5483 5484 5486 5486 5487 5488 5488 5487 5487 5487 5487 5485
5416 5418 5420 5422 5424 5426 5428 5429 5431 5433 5436 5438 5441 5443 5446 5448 5451 5454 5456 5458 5460 5463 5465 5466 5468 5469 5470 5472 5473 5472 5473 5474 5474 5474 5473 5473 5472 5471
5408 5409 5411 5413 5415 5416 5418 5420 5422 5424 5426 5428 5430 5432 5435 5438 5440 5442 5445 5447 5449 5450 5452 5454 5455 5456 5457 5459 5460 5460 5459 5460 5460 5460 5459 5458 5457 5456
5399 5401 5402 5404 5405 5407 5409 5411 5412 5414 5416 5419 5421 5423 5425 5427 5429 5431 5433 5435 5437 5439 5440 5442 5443 5444 5444 5446 5447 5448 5447 5446 5445 5445 5444 5444 5443 5442
5390 5392 5394 5395 5397 5399 5400 5402 5403 5405 5407 5409 5411 5413 5415 5417 5419 5421 5423 5424 5426 5427 5429 5430 5431 5432 5432 5433 5434 5435 5434 5434 5432 5431 5430 5429 5428 5427
5382 5384 5386 5387 5389 5390 5392 5394 5395 5397 5399 5401 5403 5404 5406 5407 5409 5411 5412 5414 5415 5416 5417 5418 5419 5420 5420 5421 5421 5422 5421 5421 5420 5419 5417 5415 5414 5413
Wind_Speed
57 58 58 57 56 55 54 54 54 54 54 53 52 51 50 51 51 50 50 50 49 49 48 47 46 45 44 44 43 43 43 42 42 42 43 43 42 43
56 57 57 57 57 56 56 55 54 54 54 53 53 52 51 51 51 51 51 50 50 49 49 48 47 46 46 45 45 45 44 44 44 44 44 44 44 44
56 57 56 56 56 56 57 56 55 54 53 53 53 53 53 52 52 52 51 51 50 49 49 49 49 48 47 47 47 47 46 47 46 46 46 46 46 46
55 56 56 56 57 57 56 56 56 56 55 54 53 53 53 52 52 52 52 51 50 50 50 50 50 49 49 49 49 48 48 47 47 47 47 47 47 47
53 54 54 55 55 56 56 56 56 56 56 55 55 54 54 53 52 51 52 52 51 51 50 50 50 50 50 50 49 48 48 48 48 48 48 48 48 47
51 52 52 53 54 54 55 55 56 56 57 57 56 55 54 53 53 53 52 52 52 52 51 50 50 50 50 51 50 50 49 49 49 48 49 49 48 48
49 50 50 51 52 53 53 54 54 55 55 55 55 55 54 54 54 54 54 53 53 53 52 51 51 51 51 51 50 50 50 50 50 50 50 50 49 49
47 48 49 50 50 50 51 52 52 52 52 53 54 54 54 53 54 54 54 54 54 54 54 53 52 52 52 52 52 51 51 51 51 51 51 51 51 50
45 46 47 48 48 49 50 50 50 50 50 51 51 52 52 52 53 54 54 54 54 54 54 53 53 53 52 52 52 53 53 53 53 52 52 51 51 51
43 44 44 45 46 47 48 49 49 49 49 50 50 51 51 51 51 52 53 53 53 53 53 53 53 53 53 52 53 53 53 53 53 53 53 52 52 52
41 42 42 43 44 46 47 48 48 48 48 48 49 50 50 50 51 51 52 52 51 51 52 51 51 51 51 51 52 52 52 52 52 52 52 52 52 52
39 39 40 41 42 43 45 47 47 47 48 48 48 49 49 49 50 50 50 50 50 49 49 49 49 49 49 49 50 50 50 51 51 51 51 51 51 51
36 37 38 39 39 41 43 45 46 47 48 48 48 47 48 48 48 48 48 49 49 48 48 49 49 49 49 48 47 48 49 49 49 49 49 49 48 49
35 35 36 37 38 39 41 42 44 45 46 47 47 47 47 47 47 47 47 48 48 47 47 48 48 48 47 47 47 47 48 48 47 47 48 48 48 48
33 33 34 36 37 37 38 39 42 43 44 44 45 45 45 46 46 47 47 47 47 47 47 47 47 46 46 46 47 47 48 47 47 47 47 47 47 47
31 32 32 33 34 35 35 37 39 41 43 43 43 43 44 45 45 46 47 47 46 46 46 46 46 46 45 46 47 47 47 46 46 46 46 46 47 47
31 31 32 32 32 34 35 35 36 38 39 40 41 41 42 42 43 44 45 45 45 44 45 46 45 45 45 45 46 46 45 45 45 45 46 46 47 47
31 32 31 32 32 32 33 35 36 37 37 38 39 39 40 41 41 42 42 43 43 44 44 44 44 44 44 44 44 44 44 44 44 45 45 46 46 47
30 30 31 31 31 31 32 33 34 35 36 37 38 39 40 40 40 40 40 41 41 41 41 42 43 43 43 42 42 43 43 44 44 45 45 46 46 46
29 29 29 30 30 30 31 32 33 33 34 35 36 37 38 38 38 38 39 39 39 39 39 40 41 41 41 41 41 41 42 43 43 44 45 46 46 46
27 27 28 28 29 29 30 31 32 32 33 33 34 35 35 36 36 37 37 38 38 38 38 38 39 39 39 39 39 39 40 42 42 43 44 45 45 45
26 26 26 27 28 28 29 29 29 29 29 29 30 31 32 33 34 34 35 35 36 37 36 36 36 37 38 38 38 39 39 40 41 42 42 43 43 42
26 26 26 26 27 27 28 27 27 27 27 28 28 28 29 31 32 32 32 33 34 34 34 35 36 36 36 37 37 38 39 40 40 41 41 41 41 40
Wind_Direction
253 253 253 253 253 253 253 252 252 252 252 252 252 253 254 254 254 255 256 256 257 257 258 259 260 262 264 265 267 268 269 271 272 274 275 276 278 279
254 253 253 252 253 252 252 252 252 252 251 250 251 251 252 253 254 255 256 256 256 257 257 259 261 262 264 265 266 268 270 271 272 274 276 277 278 279
254 254 253 252 252 252 251 251 251 251 251 250 250 251 251 253 255 255 255 255 255 256 258 259 260 262 263 264 266 268 269 271 272 274 276 277 278 279
254 254 253 252 252 251 251 250 251 251 251 251 250 251 251 252 254 254 254 254 256 257 258 259 260 262 263 264 266 267 269 271 273 274 276 277 278 279
254 253 253 252 251 251 250 250 250 251 250 250 250 250 252 252 253 253 254 255 256 257 257 259 260 261 262 264 265 268 269 271 273 275 276 277 278 279
254 253 252 251 250 250 250 250 250 250 250 250 250 251 252 252 253 253 254 255 256 256 257 259 260 261 262 263 266 267 269 271 272 274 275 276 277 278
254 253 252 250 249 249 250 249 249 250 250 250 251 251 252 252 253 253 254 255 256 256 257 259 260 261 263 264 266 267 269 271 272 274 274 275 276 277
254 253 252 249 249 249 248 248 248 249 249 250 251 251 251 252 253 254 255 255 256 256 257 258 260 262 263 265 266 267 269 271 273 273 274 274 275 276
255 253 251 249 248 247 247 247 247 248 249 250 250 251 252 253 254 254 254 255 256 256 257 259 261 262 264 265 266 268 270 272 273 273 273 274 274 274
254 253 251 249 248 247 247 247 247 249 249 250 251 251 252 253 255 255 255 255 256 257 259 260 261 263 264 266 267 269 270 271 272 272 272 273 274 274
253 252 251 250 249 248 247 247 247 248 249 250 251 252 253 254 255 256 256 256 257 258 259 261 262 262 264 266 267 268 269 270 271 271 272 272 273 274
252 251 252 251 251 250 249 248 248 248 248 249 251 252 253 254 255 256 256 256 256 258 259 261 262 263 264 266 267 268 269 270 271 272 272 272 273 273
251 252 252 251 251 251 251 249 248 249 248 249 251 252 253 254 255 256 256 256 257 258 260 261 262 264 265 266 267 269 270 271 271 271 272 272 273 274
252 251 251 250 250 249 250 250 250 249 249 249 251 252 252 253 255 256 257 258 258 259 260 261 263 265 266 267 268 269 271 271 271 271 272 273 274 275
250 250 250 249 248 249 251 251 250 248 248 249 250 251 252 253 255 256 257 258 259 260 261 261 263 264 266 267 269 270 270 270 270 271 272 274 274 275
250 249 250 251 251 250 249 249 250 250 250 250 251 252 253 254 255 256 256 257 258 259 260 261 263 264 266 268 269 269 269 269 269 271 272 273 275 276
251 251 251 252 253 252 250 251 252 252 251 250 251 252 252 253 254 256 256 257 258 259 260 261 263 264 266 268 269 269 269 270 270 271 272 274 275 276
253 252 253 253 253 253 254 253 254 254 252 251 251 252 253 254 255 256 257 258 259 260 260 261 263 265 266 268 269 269 269 270 270 271 272 274 275 276
254 254 253 253 253 252 253 254 254 254 254 252 252 254 254 255 255 256 257 258 259 261 262 263 264 265 266 268 269 270 270 270 271 272 273 275 276 276
252 253 253 253 252 252 252 254 254 254 254 252 254 254 254 254 255 256 258 260 261 262 263 264 265 266 266 268 269 270 270 271 272 273 275 276 277 276
251 252 253 253 253 253 253 254 255 255 254 253 254 255 255 255 256 258 259 260 260 262 263 264 265 266 267 268 269 270 271 272 273 275 276 277 278 277
251 252 252 253 254 255 255 254 254 254 253 255 255 255 255 256 257 258 259 260 261 262 262 264 265 267 268 268 269 270 270 272 274 275 277 278 279 278
252 253 253 253 253 253 253 253 254 253 253 254 255 255 255 256 258 259 260 261 262 262 263 265 266 267 268 268 269 270 271 272 274 276 277 278 279 278